CZ-4C DEB (43265 NORAD) Tracking and Keplerian Element Data

This shows tracking and keplerian element data for the satellite.

Feedback or suggestion? Click here.




ElementValue
Catalog43265
NameCZ-4C DEB
Epoch Orbit428
Epoch Day119.199902
Epoch Year2018
RAAN194.9003
Inclination98.0325
Eccentricity0.0006122
Argument of Perigee157.0085
Mean Anonmoly203.1404
Mean Motion14.7602048
Decay Rate2.55E-06
L11 43265U 18031G 18119.19990200 .00000255 00000-0 44448-4 0 9993
L22 43265 98.0325 194.9003 0006122 157.0085 203.1404 14.76020480 4282

Live tracking and technical data element details for CZ-4C DEB (NORAD 43265). CZ-4C DEB can be tracked NOW for your location showing map with azimuth and elevation plus other details from your city location.

Track the satellite on the map from your city or location and see movement details for azimuth, elevation, latitude, longitude, range, height, and movement on the map or in text.







IsCatalogInMostPopularTable: catalog: 43265, numindb: 54
Update: records affected: 1



GetName: 43265 CZ-4C DEB

Hit Count: updated at: Tue, 20 Nov 2018 11:08:23 GMT